Погода в Каршевитом

Россия / Волгоградская область     48°27′23″N   45°18′54″E
темп.,
°C
ветер,
м/с
пор.,
м/с
влажн.,
%
обл.,
%
осадки,
мм/ч
давл.,
гПа
погр.,
м
15 апреля, чт
чт1500:00+13з486290 0.0 1016140
03:00+12сз3363100 0.0 101543
06:00+12ссз3464100 0.0 101573
09:00+17сз344884 0.0 1015401
12:00+21сз443488 0.0 10141136
15:00+22ссз4430100 0.0 10141539
18:00+19сз354193 0.0 101483
21:00+15зсз5957100 0.0 1014175
16 апреля, пт
пт1600:00+14сз51164100 0.0 1015287
03:00+13сз5126591 0.0 1016290
06:00+12сз5126815 0.0 1017322
09:00+17сз684995 0.0 1018710
12:00+20сз663986 0.0 10181359
15:00+21ссз5532100 0.0 10171944
18:00+19с34430 0.0 101778
21:00+16сз224691 0.0 101811
17 апреля, сб
сб1700:00+14з2250100 0.0 101811
03:00+12з4766100 0.0 1018120
06:00+12сз227336 0.0 101837
09:00+14зюз4673100 0.1 1020368
12:00+13з81070100 0.1 1021793
15:00+11юз2482100 4.1 1021334
18:00+14с116777 0.1 102149
21:00+11ююв227891 0.1 102119
18 апреля, вс
вс1800:00+10ю228210 0.0 102119
03:00+9зюз22765 0.0 102112
06:00+9ююз117799 0.0 102012
09:00+13ююз225530 0.0 1020474
12:00+16юз3342100 0.0 10191675
15:00+17ююз2239100 0.0 10181819
18:00+16ююз1149100 0.0 101715
21:00+14ссз0151100 0.0 101710
19 апреля, пн
пн1900:00+13ссз2253100 0.0 101719
03:00+12ссв2256100 0.0 101637
06:00+12св2260100 0.0 101627
09:00+15всв3450100 0.0 1016605
12:00+17ссв1142100 0.0 10151770
15:00+16ссв4450100 0.0 1015861
18:00+15св3457100 0.0 101595
21:00+10св7118567 0.3 1017511